Time,TemperatureF,DewpointF,PressureIn,WindDirection,WindDirectionDegrees,WindSpeedMPH,WindSpeedGustMPH,Humidity,HourlyPrecipIn,Conditions,Clouds,dailyrainin,SolarRadiationWatts/m^2,SoftwareType,DateUTC
2013-09-30 00:03:00,53.0,35.0,-100.00,WNW,290,2.0,6.0,51,0.00,,,0.00,0.000000,,2013-09-30 06:03:00,
2013-09-30 00:12:00,53.0,35.0,-100.00,WNW,290,2.0,6.0,51,0.00,,,0.00,0.000000,,2013-09-30 06:12:00,
2013-09-30 00:22:00,53.0,35.0,-100.00,WNW,290,2.0,6.0,51,0.00,,,0.00,0.000000,,2013-09-30 06:22:00,
2013-09-30 00:52:00,49.0,35.0,-100.00,SSE,160,0.0,4.0,59,0.00,,,0.00,0.000000,,2013-09-30 06:52:00,
2013-09-30 01:02:00,49.0,35.0,-100.00,SSE,160,0.0,4.0,59,0.00,,,0.00,0.000000,,2013-09-30 07:02:00,
2013-09-30 01:12:00,49.0,35.0,-100.00,SSE,160,0.0,4.0,59,0.00,,,0.00,0.000000,,2013-09-30 07:12:00,
2013-09-30 01:22:00,49.0,35.0,-100.00,SSE,160,0.0,4.0,59,0.00,,,0.00,0.000000,,2013-09-30 07:22:00,
2013-09-30 01:53:00,46.0,35.0,-100.00,SW,221,2.0,5.0,64,0.00,,,0.00,0.000000,,2013-09-30 07:53:00,
2013-09-30 02:02:00,46.0,35.0,-100.00,SW,221,2.0,5.0,64,0.00,,,0.00,0.000000,,2013-09-30 08:02:00,
2013-09-30 02:12:00,46.0,35.0,-100.00,SW,221,2.0,5.0,64,0.00,,,0.00,0.000000,,2013-09-30 08:12:00,
2013-09-30 02:22:00,46.0,35.0,-100.00,SW,221,2.0,5.0,64,0.00,,,0.00,0.000000,,2013-09-30 08:22:00,
2013-09-30 02:52:00,51.0,38.0,-100.00,SW,214,4.0,8.0,60,0.00,,,0.00,0.000000,,2013-09-30 08:52:00,
2013-09-30 03:02:00,51.0,38.0,-100.00,SW,214,4.0,8.0,60,0.00,,,0.00,0.000000,,2013-09-30 09:02:00,
2013-09-30 03:11:00,51.0,38.0,-100.00,SW,214,4.0,8.0,60,0.00,,,0.00,0.000000,,2013-09-30 09:11:00,
2013-09-30 03:22:00,51.0,38.0,-100.00,SW,214,4.0,8.0,60,0.00,,,0.00,0.000000,,2013-09-30 09:22:00,
2013-09-30 03:54:00,51.0,38.0,-100.00,SSW,211,4.0,9.0,60,0.00,,,0.00,0.000000,,2013-09-30 09:54:00,
2013-09-30 04:03:00,51.0,38.0,-100.00,SSW,211,4.0,9.0,60,0.00,,,0.00,0.000000,,2013-09-30 10:03:00,
2013-09-30 04:13:00,51.0,38.0,-100.00,SSW,211,4.0,9.0,60,0.00,,,0.00,0.000000,,2013-09-30 10:13:00,
2013-09-30 04:22:00,51.0,38.0,-100.00,SSW,211,4.0,9.0,60,0.00,,,0.00,0.000000,,2013-09-30 10:22:00,
2013-09-30 04:53:00,51.0,36.0,-100.00,SW,225,4.0,8.0,57,0.00,,,0.00,0.000000,,2013-09-30 10:53:00,
2013-09-30 05:03:00,51.0,36.0,-100.00,SW,225,4.0,8.0,57,0.00,,,0.00,0.000000,,2013-09-30 11:03:00,
2013-09-30 05:12:00,51.0,36.0,-100.00,SW,225,4.0,8.0,57,0.00,,,0.00,0.000000,,2013-09-30 11:12:00,
2013-09-30 05:22:00,51.0,36.0,-100.00,SW,225,4.0,8.0,57,0.00,,,0.00,0.000000,,2013-09-30 11:22:00,
2013-09-30 05:52:00,50.0,36.0,-100.00,SW,219,3.0,8.0,59,0.00,,,0.00,0.000000,,2013-09-30 11:52:00,
2013-09-30 06:02:00,50.0,36.0,-100.00,SW,219,3.0,8.0,59,0.00,,,0.00,0.000000,,2013-09-30 12:02:00,
2013-09-30 06:12:00,50.0,36.0,-100.00,SW,219,3.0,8.0,59,0.00,,,0.00,0.000000,,2013-09-30 12:12:00,
2013-09-30 06:22:00,50.0,36.0,-100.00,SW,219,3.0,8.0,59,0.00,,,0.00,0.000000,,2013-09-30 12:22:00,
2013-09-30 06:52:00,49.0,34.0,-100.00,SW,228,2.0,9.0,57,0.00,,,0.00,0.000000,,2013-09-30 12:52:00,
2013-09-30 07:01:00,49.0,34.0,-100.00,SW,228,2.0,9.0,57,0.00,,,0.00,0.000000,,2013-09-30 13:01:00,
2013-09-30 07:11:00,49.0,34.0,-100.00,SW,228,2.0,9.0,57,0.00,,,0.00,0.000000,,2013-09-30 13:11:00,
2013-09-30 07:22:00,49.0,34.0,-100.00,SW,228,2.0,9.0,57,0.00,,,0.00,0.000000,,2013-09-30 13:22:00,
2013-09-30 07:52:00,50.0,36.0,-100.00,SSW,211,5.0,9.0,59,0.00,,,0.00,8.000000,,2013-09-30 13:52:00,
2013-09-30 08:02:00,50.0,36.0,-100.00,SSW,211,5.0,9.0,59,0.00,,,0.00,8.000000,,2013-09-30 14:02:00,
2013-09-30 08:11:00,50.0,36.0,-100.00,SSW,211,5.0,9.0,59,0.00,,,0.00,8.000000,,2013-09-30 14:11:00,
2013-09-30 08:22:00,50.0,36.0,-100.00,SSW,211,5.0,9.0,59,0.00,,,0.00,8.000000,,2013-09-30 14:22:00,
2013-09-30 08:53:00,54.0,36.0,-100.00,SSW,203,5.0,13.0,50,0.00,,,0.00,148.000000,,2013-09-30 14:53:00,
2013-09-30 09:02:00,54.0,36.0,-100.00,SSW,203,5.0,13.0,50,0.00,,,0.00,148.000000,,2013-09-30 15:02:00,
2013-09-30 09:11:00,54.0,36.0,-100.00,SSW,203,5.0,13.0,50,0.00,,,0.00,148.000000,,2013-09-30 15:11:00,
2013-09-30 09:23:00,54.0,36.0,-100.00,SSW,203,5.0,13.0,50,0.00,,,0.00,148.000000,,2013-09-30 15:23:00,
2013-09-30 09:24:00,58.0,39.0,-100.00,SSE,165,4.0,9.0,49,0.00,,,0.00,190.000000,,2013-09-30 15:24:00,
2013-09-30 09:54:00,58.0,39.0,-100.00,SSE,165,4.0,9.0,49,0.00,,,0.00,190.000000,,2013-09-30 15:54:00,
2013-09-30 10:04:00,58.0,39.0,-100.00,SSE,165,4.0,9.0,49,0.00,,,0.00,190.000000,,2013-09-30 16:04:00,
2013-09-30 10:14:00,58.0,39.0,-100.00,SSE,165,4.0,9.0,49,0.00,,,0.00,190.000000,,2013-09-30 16:14:00,
2013-09-30 11:23:00,68.0,41.0,-100.00,SSW,197,8.0,15.0,37,0.00,,,0.00,418.000000,,2013-09-30 17:23:00,
2013-09-30 12:22:00,72.0,42.0,-100.00,SW,222,7.0,17.0,34,0.00,,,0.00,292.000000,,2013-09-30 18:22:00,
2013-09-30 13:53:00,76.0,42.0,-100.00,WSW,251,6.0,19.0,30,0.00,,,0.00,407.000000,,2013-09-30 19:53:00,
2013-09-30 14:02:00,76.0,42.0,-100.00,WSW,251,6.0,19.0,30,0.00,,,0.00,407.000000,,2013-09-30 20:02:00,
2013-09-30 14:13:00,76.0,42.0,-100.00,WSW,251,6.0,19.0,30,0.00,,,0.00,407.000000,,2013-09-30 20:13:00,
2013-09-30 14:23:00,76.0,42.0,-100.00,WSW,251,6.0,19.0,30,0.00,,,0.00,407.000000,,2013-09-30 20:23:00,
2013-09-30 14:53:00,76.0,41.0,-100.00,West,271,8.0,20.0,29,0.00,,,0.00,557.000000,,2013-09-30 20:53:00,
2013-09-30 15:02:00,76.0,41.0,-100.00,West,271,8.0,20.0,29,0.00,,,0.00,557.000000,,2013-09-30 21:02:00,
2013-09-30 15:11:00,76.0,41.0,-100.00,West,271,8.0,20.0,29,0.00,,,0.00,557.000000,,2013-09-30 21:11:00,
2013-09-30 15:54:00,57.0,49.0,-100.00,WNW,303,12.0,37.0,74,-99.99,,,0.01,246.000000,,2013-09-30 21:54:00,
2013-09-30 16:03:00,57.0,49.0,-100.00,WNW,303,12.0,37.0,74,-99.99,,,0.01,246.000000,,2013-09-30 22:03:00,
2013-09-30 16:13:00,57.0,49.0,-100.00,WNW,303,12.0,37.0,74,-99.99,,,0.01,246.000000,,2013-09-30 22:13:00,
2013-09-30 16:23:00,57.0,49.0,-100.00,WNW,303,12.0,37.0,74,-99.99,,,0.01,246.000000,,2013-09-30 22:23:00,
2013-09-30 16:54:00,51.0,48.0,-100.00,WNW,285,7.0,29.0,90,0.01,,,0.02,93.000000,,2013-09-30 22:54:00,
2013-09-30 17:03:00,51.0,48.0,-100.00,WNW,285,7.0,29.0,90,0.01,,,0.02,93.000000,,2013-09-30 23:03:00,
2013-09-30 17:12:00,51.0,48.0,-100.00,WNW,285,7.0,29.0,90,0.01,,,0.02,93.000000,,2013-09-30 23:12:00,
2013-09-30 17:23:00,51.0,48.0,-100.00,WNW,285,7.0,29.0,90,0.01,,,0.02,93.000000,,2013-09-30 23:23:00,
2013-09-30 17:54:00,53.0,49.0,-100.00,South,182,2.0,12.0,87,0.00,,,0.02,53.000000,,2013-09-30 23:54:00,
2013-09-30 18:03:00,53.0,49.0,-100.00,South,182,2.0,12.0,87,0.00,,,0.02,53.000000,,2013-10-01 00:03:00,
2013-09-30 18:12:00,53.0,49.0,-100.00,South,182,2.0,12.0,87,0.00,,,0.02,53.000000,,2013-10-01 00:12:00,
2013-09-30 18:22:00,53.0,49.0,-100.00,South,182,2.0,12.0,87,0.00,,,0.02,53.000000,,2013-10-01 00:22:00,
2013-09-30 18:52:00,53.0,43.0,-100.00,WSW,243,6.0,19.0,69,0.00,,,0.02,21.000000,,2013-10-01 00:52:00,
2013-09-30 19:03:00,53.0,43.0,-100.00,WSW,243,6.0,19.0,69,0.00,,,0.02,21.000000,,2013-10-01 01:03:00,
2013-09-30 19:12:00,53.0,43.0,-100.00,WSW,243,6.0,19.0,69,0.00,,,0.02,21.000000,,2013-10-01 01:12:00,
2013-09-30 19:21:00,53.0,43.0,-100.00,WSW,243,6.0,19.0,69,0.00,,,0.02,21.000000,,2013-10-01 01:21:00,
2013-09-30 19:52:00,53.0,43.0,-100.00,West,266,7.0,16.0,68,0.00,,,0.02,2.000000,,2013-10-01 01:52:00,
2013-09-30 20:02:00,53.0,43.0,-100.00,West,266,7.0,16.0,68,0.00,,,0.02,2.000000,,2013-10-01 02:02:00,
2013-09-30 20:12:00,53.0,43.0,-100.00,West,266,7.0,16.0,68,0.00,,,0.02,2.000000,,2013-10-01 02:12:00,
2013-09-30 20:22:00,53.0,43.0,-100.00,West,266,7.0,16.0,68,0.00,,,0.02,2.000000,,2013-10-01 02:22:00,
2013-09-30 20:52:00,49.0,42.0,-100.00,WSW,244,4.0,14.0,77,0.00,,,0.02,0.000000,,2013-10-01 02:52:00,
2013-09-30 21:03:00,49.0,42.0,-100.00,WSW,244,4.0,14.0,77,0.00,,,0.02,0.000000,,2013-10-01 03:03:00,
2013-09-30 21:12:00,49.0,42.0,-100.00,WSW,244,4.0,14.0,77,0.00,,,0.02,0.000000,,2013-10-01 03:12:00,
2013-09-30 21:22:00,49.0,42.0,-100.00,WSW,244,4.0,14.0,77,0.00,,,0.02,0.000000,,2013-10-01 03:22:00,
2013-09-30 21:24:00,48.0,39.0,-100.00,WSW,241,4.0,10.0,71,0.00,,,0.02,0.000000,,2013-10-01 03:24:00,
2013-09-30 21:55:00,48.0,39.0,-100.00,WSW,241,4.0,10.0,71,0.00,,,0.02,0.000000,,2013-10-01 03:55:00,
2013-09-30 22:04:00,48.0,39.0,-100.00,WSW,241,4.0,10.0,71,0.00,,,0.02,0.000000,,2013-10-01 04:04:00,
2013-09-30 22:14:00,48.0,39.0,-100.00,WSW,241,4.0,10.0,71,0.00,,,0.02,0.000000,,2013-10-01 04:14:00,